Cloud_Cover
92 97 100 98 96 60 97 93 97 62 22 74 100 100 94 99 88 78 37 89 100 99 33 68 100 94 98 22 99 100 100 100 100 100 100 100 100 100 100 100 100 100 96 100 100 100 57 12 21 5 4 4 4 5
99 100 100 87 95 55 97 95 100 99 100 64 100 86 96 95 100 100 93 100 100 100 96 78 100 86 63 40 100 100 100 100 100 100 100 100 100 100 100 100 100 100 100 87 99 94 96 36 5 5 5 4 0 0
100 100 100 100 90 62 65 97 80 26 100 78 5 11 5 63 100 100 100 100 100 100 80 100 89 17 69 31 100 100 100 100 100 100 100 100 100 100 100 100 100 100 100 100 100 100 100 74 20 15 5 5 2 4
100 100 100 100 100 97 100 100 78 20 73 100 21 5 5 18 100 100 100 100 100 100 100 66 6 44 96 100 100 76 100 100 100 100 100 100 100 100 100 100 99 100 100 100 100 100 100 96 36 39 8 5 5 2
100 100 100 100 87 98 96 100 82 28 6 100 72 5 5 74 100 77 69 96 100 100 98 94 8 99 62 88 100 100 100 100 100 100 100 100 92 99 77 97 100 100 100 100 100 100 100 97 92 100 75 15 5 2
100 100 99 28 99 100 100 86 87 88 11 100 90 6 5 5 6 79 100 98 100 100 100 100 15 100 100 100 100 77 89 100 100 100 100 100 100 100 98 100 90 100 100 96 89 100 100 100 100 100 100 100 40 5
100 100 98 100 100 93 13 5 5 5 9 90 100 84 5 5 25 33 86 100 100 100 100 95 40 100 100 91 68 41 97 100 97 100 97 97 97 100 100 64 84 100 98 98 100 100 99 99 100 100 99 100 97 100
100 100 100 100 100 57 18 23 87 97 88 100 36 5 27 22 79 99 100 92 62 90 99 100 99 100 100 100 100 100 98 100 100 100 98 100 91 68 98 100 100 89 100 77 100 100 97 100 100 100 58 66 81 12
100 100 100 100 68 100 100 5 5 5 5 5 5 10 6 48 77 74 99 100 100 62 99 100 100 100 100 100 100 100 100 100 100 100 83 100 100 100 100 100 100 96 100 100 99 99 100 95 64 31 46 5 5 5
100 100 78 14 6 100 95 94 100 13 5 5 5 11 65 94 100 79 61 42 100 100 100 100 100 100 100 100 100 100 100 100 100 100 100 100 100 83 64 53 91 100 100 100 100 100 72 78 24 5 7 5 11 6
97 46 67 39 90 100 100 93 29 18 91 100 98 95 48 96 29 59 42 72 36 67 90 100 100 100 100 100 100 100 100 100 100 100 92 94 94 94 81 34 18 11 23 22 18 52 20 42 70 88 72 71 5 1
27 11 5 25 100 100 100 100 100 100 100 100 100 87 22 37 61 70 55 53 92 100 100 100 100 100 100 100 100 100 100 100 100 99 99 79 85 12 5 5 5 68 68 59 86 93 91 91 95 100 58 10 1 0
5 5 13 98 100 100 100 100 100 100 100 99 72 87 93 31 97 92 84 100 100 100 100 100 100 100 100 100 100 100 100 100 100 99 77 49 83 21 5 5 5 5 5 5 6 91 100 100 99 10 5 0 0 0
5 5 5 5 96 100 100 100 100 100 100 96 87 99 88 69 74 96 100 100 100 100 100 100 100 100 100 100 100 100 100 100 94 77 83 95 56 5 5 5 5 5 5 5 45 100 100 98 6 5 0 0 0 0
5 5 17 46 100 100 98 98 100 100 100 99 93 88 22 46 98 100 100 100 100 100 100 100 100 100 100 100 100 100 100 100 100 99 66 86 5 54 89 7 5 5 66 100 100 100 97 7 5 4 2 5 0 0
81 38 97 93 30 60 84 96 100 100 100 89 91 83 8 81 98 100 100 100 100 100 100 100 100 100 100 100 100 100 100 100 100 65 95 94 9 70 98 91 88 98 100 28 16 5 13 49 5 5 4 1 0 0
100 100 83 77 70 58 95 100 100 100 97 87 73 10 7 90 100 100 100 100 100 100 100 100 100 100 100 100 100 100 100 100 100 100 100 100 45 70 100 100 100 100 100 79 86 99 100 25 5 7 5 5 1 2
100 100 100 57 19 80 100 100 100 98 97 65 57 46 100 100 100 100 100 100 100 100 100 100 100 100 100 100 100 100 100 100 93 100 100 89 75 86 100 100 100 99 78 6 68 97 17 8 9 5 54 66 11 5
100 100 91 100 82 99 86 71 88 88 13 5 5 88 79 100 100 100 100 100 100 100 100 100 100 100 100 100 100 100 100 100 100 100 92 71 96 100 95 100 100 79 6 5 59 97 95 62 69 70 51 34 33 99
100 100 97 100 100 100 100 99 98 80 76 83 22 5 55 80 65 57 53 100 100 100 100 100 100 100 100 100 100 100 100 100 89 96 60 96 100 100 100 100 100 87 66 71 100 100 72 61 100 75 12 41 6 84
98 100 87 70 100 94 100 60 82 100 100 91 15 5 26 77 55 100 100 100 100 100 96 99 100 100 100 100 100 100 100 100 100 100 100 100 100 100 100 100 100 100 100 100 100 100 80 20 86 72 5 5 5 5
100 100 96 91 98 96 92 49 75 100 100 100 80 78 14 30 34 25 99 100 100 98 92 100 100 100 100 100 97 100 85 92 100 66 88 97 96 60 90 99 100 100 100 100 100 100 100 100 100 50 62 22 35 28
100 93 93 100 93 67 71 98 75 91 96 100 93 52 48 77 63 15 74 100 100 77 88 100 100 100 94 100 100 100 100 94 100 100 100 74 62 91 54 100 97 96 100 100 100 100 99 94 90 97 100 100 100 100
99 95 99 100 100 58 85 99 97 93 80 100 97 79 73 49 80 100 98 50 73 60 100 100 100 100 96 100 100 100 98 91 100 100 96 51 58 86 70 100 100 100 100 100 100 94 97 100 100 100 100 100 100 100
100 77 91 100 72 100 100 99 86 100 100 100 100 100 100 99 98 100 100 100 100 100 100 100 100 100 100 95 100 100 100 100 100 100 100 11 73 59 100 100 100 100 100 100 100 100 100 100 100 100 100 100 100 100
97 98 87 92 100 98 91 90 100 90 88 97 100 100 100 100 98 100 91 100 100 100 100 100 100 100 100 100 100 100 100 100 100 96 87 92 100 100 100 100 100 100 100 100 100 100 100 100 100 100 100 100 100 100
100 77 97 85 81 92 100 98 63 66 36 97 100 100 100 100 100 100 100 100 100 100 100 100 100 100 100 100 100 100 100 97 85 75 87 100 100 100 100 100 100 100 100 100 100 100 100 100 100 100 100 100 100 100
66 94 99 100 100 100 100 99 66 6 18 54 100 100 100 100 100 100 100 100 100 100 100 100 100 100 100 100 98 100 98 85 70 55 86 100 100 100 100 100 100 100 100 100 100 100 100 96 73 67 61 90 100 100
100 100 100 100 87 65 71 72 31 18 98 100 100 100 100 100 100 100 100 100 100 100 100 100 100 99 99 100 100 81 91 97 98 93 98 100 100 100 100 100 100 100 100 100 100 100 100 100 100 100 100 100 100 100
100 100 82 64 93 100 100 100 100 100 100 100 100 100 100 100 100 100 100 100 100 100 100 93 100 96 100 100 100 100 100 100 100 100 100 100 100 100 100 100 100 100 100 100 100 100 100 100 100 94 80 48 16 5
100 100 89 69 100 100 100 100 100 100 100 100 100 100 100 100 100 100 100 100 100 100 100 100 100 100 100 100 100 100 100 100 100 100 100 100 100 97 98 99 97 100 82 96 66 70 47 34 25 20 5 3 0 0
90 78 100 100 88 100 100 100 100 100 100 100 100 100 100 100 99 100 100 100 100 100 100 100 100 100 100 100 100 100 100 100 100 100 96 50 27 5 5 5 5 5 1 0 0 0 0 0 0 0 0 0 0 0
81 100 84 89 100 100 100 100 100 100 100 100 100 100 100 100 100 100 100 100 100 100 100 100 100 100 100 100 100 95 70 28 5 5 5 8 5 5 5 2 1 0 0 0 0 0 0 0 0 0 0 0 0 0